Location: Central Falls
(41.8900°N, 71.3929°W)
Time: 03:31:46
(UTC+00:00)

Tiros 1 - Pass Details

Date: 08 December 2023
Orbit: 625 x 658 km, 48.4° (Epoch: 01 March)

Event Time Altitude Azimuth Distance (km) Brightness Sun altitude
Rises 10:39:30 0° 284° (WNW) 2,984 - -14.6°
Reaches altitude 10° 10:42:00 10° 292° (WNW) 2,074 - -14.1°
Exits shadow 10:43:43 20° 305° (NW) 1,510 8.4 -13.8°
Maximum altitude 10:46:27 37° 0° (N) 1,021 8.0 -13.3°
Drops below altitude 10° 10:50:55 10° 69° (ENE) 2,072 10.5 -12.5°
Sets 10:53:24 0° 78° (ENE) 2,981 11.6 -12.1°
